Weather reports worldwide

Advertisment
Rome GA/Russel RAMOS, United States of America (72320): temperature & dewpoint: 08.08.2020 04:00:00 - 14.08.2020 04:00:00 (EDT)Rome GA/Russel RAMOS, United States of America (72320): wind speed & gusts: 08.08.2020 04:00:00 - 14.08.2020 04:00:00 (EDT)Rome GA/Russel RAMOS, United States of America (72320): wind direction: 08.08.2020 04:00:00 - 14.08.2020 04:00:00 (EDT)Rome GA/Russel RAMOS, United States of America (72320): reduced air pressure: 08.08.2020 04:00:00 - 14.08.2020 04:00:00 (EDT)Rome GA/Russel RAMOS, United States of America (72320): visibility: 08.08.2020 04:00:00 - 14.08.2020 04:00:00 (EDT)Rome GA/Russel RAMOS, United States of America (72320): precipitation: 08.08.2020 04:00:00 - 14.08.2020 04:00:00 (EDT)
Date & Time tt [°C] td [°C] ff [km/h] ff [kn] fx [km/h] fx [kn] dd ppp [hPa] vv [km] rr [mm]
14.08.2020 04:00:00 - - - - - - - - - -
14.08.2020 03:00:00 23,9 21,7 0 0 - - N 1013,9 13 0,3
14.08.2020 02:00:00 24,4 21,1 8 4 - - S 1014,5 16 0,0
14.08.2020 01:00:00 25,0 21,7 8 4 - - E 1014,1 16 -
14.08.2020 00:00:00 25,0 21,7 5 3 - - SSE 1013,9 16 -
13.08.2020 23:00:00 26,1 21,7 0 0 - - N 1014,1 16 -
13.08.2020 22:00:00 27,2 22,2 9 5 - - SSW 1013,8 16 -
13.08.2020 21:00:00 28,3 22,2 5 3 - - ENE 1012,8 16 -
13.08.2020 20:00:00 32,8 19,4 5 3 - - N 1012,1 16 0,0
13.08.2020 19:00:00 34,4 18,3 9 5 - - WNW 1012,4 16 -
13.08.2020 18:00:00 34,4 18,9 9 5 - - NW 1011,7 16 -
13.08.2020 17:00:00 34,4 18,9 8 4 - - - 1012,1 16 -
13.08.2020 16:00:00 33,9 20,6 11 6 - - WSW 1012,6 16 -
13.08.2020 15:00:00 33,3 21,7 11 6 - - W 1013,9 16 -
13.08.2020 14:00:00 31,1 21,7 9 5 - - W 1015,5 16 0,0
13.08.2020 13:00:00 31,7 22,2 5 3 - - NW 1015,9 16 -
13.08.2020 12:00:00 29,4 20,6 0 0 - - N 1016,3 16 -
13.08.2020 11:00:00 28,3 22,2 0 0 - - N 1016,8 16 -
13.08.2020 10:00:00 26,1 21,7 8 4 - - S 1016,8 16 -
13.08.2020 09:00:00 24,4 21,1 0 0 - - N 1016,8 16 -
13.08.2020 08:00:00 22,8 20,6 0 0 - - N 1016,4 16 0,0
13.08.2020 07:00:00 21,1 19,4 0 0 - - N 1016,3 10 -
13.08.2020 06:00:00 21,7 20,0 0 0 - - N 1015,4 16 -
13.08.2020 05:00:00 21,7 20,0 8 4 - - ENE 1015,1 16 -
13.08.2020 04:00:00 22,8 20,6 0 0 - - N 1014,9 16 -
13.08.2020 03:00:00 22,8 21,1 0 0 - - N 1015,1 16 -
13.08.2020 02:00:00 22,8 20,6 0 0 - - N 1015,4 16 0,0
13.08.2020 01:00:00 23,3 21,1 0 0 - - N 1015,7 16 -
13.08.2020 00:00:00 23,9 21,7 0 0 - - N 1015,5 16 -
12.08.2020 23:00:00 23,9 21,7 0 0 - - N 1015,4 16 -
12.08.2020 22:00:00 25,0 21,7 0 0 - - N 1014,9 16 -
12.08.2020 21:00:00 26,1 21,7 8 4 - - W 1014,8 16 -
12.08.2020 20:00:00 26,7 22,2 0 0 - - N 1014,3 16 -
12.08.2020 19:00:00 26,7 22,2 0 0 - - N 1014,5 16 0,0
12.08.2020 18:00:00 27,2 20,6 8 4 - - SW 1014,1 16 -
12.08.2020 17:00:00 26,1 18,9 22 12 61 33 S 1014,2 16 -
12.08.2020 16:00:00 33,9 20,6 9 5 - - WNW 1013,1 16 -
12.08.2020 15:00:00 35,0 20,6 8 4 - - ENE 1013,7 16 -
12.08.2020 14:00:00 34,4 21,1 0 0 - - N 1015,0 16 0,0
12.08.2020 13:00:00 33,3 20,6 0 0 - - N 1015,7 16 -
12.08.2020 12:00:00 31,7 22,8 5 3 - - - 1016,2 16 -
12.08.2020 11:00:00 30,6 23,3 8 4 - - NE 1016,0 16 -
12.08.2020 10:00:00 28,3 22,8 5 3 - - - 1016,0 16 -
12.08.2020 09:00:00 26,7 22,8 0 0 - - N 1016,3 16 -
12.08.2020 08:00:00 23,9 21,7 0 0 - - N 1015,7 15 0,0
12.08.2020 07:00:00 23,9 21,7 0 0 - - N 1014,9 16 -
12.08.2020 06:00:00 22,8 21,1 8 4 - - W 1014,7 16 -
12.08.2020 05:00:00 23,9 21,7 0 0 - - N 1014,3 16 -
12.08.2020 04:00:00 25,0 21,7 5 3 - - NNE 1014,3 16 -
12.08.2020 03:00:00 25,6 22,8 13 7 - - WSW 1014,8 16 -
12.08.2020 02:00:00 24,4 22,8 0 0 - - N 1015,1 16 0,0
12.08.2020 01:00:00 25,6 23,3 0 0 - - N 1015,0 16 -
12.08.2020 00:00:00 26,1 23,9 8 4 - - N 1014,7 16 -
11.08.2020 23:00:00 26,7 23,9 0 0 - - N 1014,6 16 -
11.08.2020 22:00:00 28,3 23,9 5 3 - - N 1014,1 16 -
11.08.2020 21:00:00 29,4 22,8 0 0 - - N 1013,3 16 -
11.08.2020 20:00:00 32,8 21,7 8 4 - - ENE 1012,8 16 0,0
11.08.2020 19:00:00 34,4 20,0 0 0 - - N 1012,9 16 -
11.08.2020 18:00:00 34,4 21,1 8 4 - - NNE 1012,9 16 -
11.08.2020 17:00:00 34,4 21,1 11 6 - - NNE 1013,2 16 -
11.08.2020 16:00:00 34,4 21,1 13 7 - - NNW 1014,1 16 -
11.08.2020 15:00:00 33,3 21,7 0 0 - - N 1014,9 16 -
11.08.2020 14:00:00 31,7 22,8 9 5 - - NW 1015,9 16 0,0
11.08.2020 13:00:00 29,4 23,3 11 6 - - ENE 1016,5 16 -
11.08.2020 12:00:00 28,9 22,2 0 0 - - N 1016,6 16 -
11.08.2020 11:00:00 25,6 21,7 5 3 - - W 1016,5 15 -
11.08.2020 10:00:00 24,4 21,7 8 4 - - SW 1016,1 16 -
11.08.2020 09:00:00 23,3 21,7 8 4 - - SW 1015,9 13 -
11.08.2020 08:00:00 23,3 21,7 0 0 - - N 1016,7 10 0,0
11.08.2020 07:00:00 23,3 21,7 5 3 - - W 1016,4 16 -
11.08.2020 06:00:00 22,8 21,7 8 4 - - E 1016,1 15 -
11.08.2020 05:00:00 22,8 21,7 0 0 - - N 1015,2 0,4 -
11.08.2020 04:00:00 22,8 21,7 0 0 - - N 1015,0 0,8 -
11.08.2020 03:00:00 22,8 21,7 0 0 - - N 1015,2 1,6 -
11.08.2020 02:00:00 23,3 21,7 0 0 - - N 1016,3 13 0,0
11.08.2020 01:00:00 23,3 22,2 0 0 - - N 1016,1 2,4 -
11.08.2020 00:00:00 23,9 22,2 0 0 - - N 1016,4 15 -
10.08.2020 23:00:00 23,9 22,2 5 3 - - E 1016,5 16 -
10.08.2020 22:00:00 23,9 22,2 9 5 - - NW 1015,7 15 -
10.08.2020 21:00:00 24,4 22,2 0 0 - - N 1016,1 16 -
10.08.2020 20:00:00 24,4 22,8 5 3 - - E 1015,7 16 -
10.08.2020 19:00:00 25,0 22,8 9 5 - - N 1015,4 16 -
10.08.2020 18:00:00 24,4 22,8 5 3 - - E 1015,6 16 0,3
10.08.2020 17:00:00 25,0 21,7 8 4 - - NNE 1016,8 16 0,0
10.08.2020 16:00:00 25,0 21,1 0 0 - - N 1017,8 16 0,0
10.08.2020 15:00:00 25,6 21,7 21 11 55 30 NE 1017,0 16 0,0
10.08.2020 14:00:00 32,8 21,1 13 7 - - W 1016,8 16 0,0
10.08.2020 13:00:00 32,8 21,7 13 7 - - WNW 1018,0 16 -
10.08.2020 12:00:00 32,8 21,7 9 5 - - W 1018,4 16 -
10.08.2020 11:00:00 30,6 22,8 0 0 - - N 1018,5 16 -
10.08.2020 10:00:00 28,3 22,8 0 0 - - N 1018,5 16 -
10.08.2020 09:00:00 25,6 22,2 0 0 - - N 1018,2 16 -
10.08.2020 08:00:00 23,9 21,7 0 0 - - N 1018,0 15 0,0
10.08.2020 07:00:00 22,2 21,1 0 0 - - N 1017,8 13 -
10.08.2020 06:00:00 23,3 21,7 0 0 - - N 1017,5 16 -
10.08.2020 05:00:00 23,3 21,1 0 0 - - N 1017,6 16 -
10.08.2020 04:00:00 24,4 22,2 0 0 - - N 1017,8 16 -
10.08.2020 03:00:00 23,9 22,2 0 0 - - N 1018,0 16 -
10.08.2020 02:00:00 23,9 22,2 0 0 - - N 1018,2 16 0,0
10.08.2020 01:00:00 24,4 22,8 0 0 - - N 1018,4 16 -
10.08.2020 00:00:00 25,0 22,8 0 0 - - N 1018,4 16 -
09.08.2020 23:00:00 26,7 22,8 0 0 - - N 1018,1 16 -
09.08.2020 22:00:00 27,8 22,2 0 0 - - N 1018,0 16 -
09.08.2020 21:00:00 28,9 22,2 11 6 - - NNE 1017,6 16 -
09.08.2020 20:00:00 30,6 22,2 5 3 - - NW 1017,1 16 0,0
09.08.2020 19:00:00 33,9 21,1 9 5 - - WNW 1017,1 16 -
09.08.2020 18:00:00 34,4 20,0 13 7 - - NW 1017,0 16 -
09.08.2020 17:00:00 32,8 21,1 11 6 - - N 1017,5 16 -
09.08.2020 16:00:00 30,6 20,6 9 5 - - N 1017,9 16 -
09.08.2020 15:00:00 35,0 18,9 5 3 - - - 1018,4 16 -
09.08.2020 14:00:00 34,4 20,0 9 5 - - WSW 1019,1 16 0,0
09.08.2020 13:00:00 32,8 21,7 - - - - - 1019,9 16 -
09.08.2020 12:00:00 31,1 22,2 0 0 - - N 1020,4 16 -
09.08.2020 11:00:00 28,9 22,2 0 0 - - N 1020,4 16 -
09.08.2020 10:00:00 26,7 22,2 0 0 - - N 1020,8 16 -
09.08.2020 09:00:00 24,4 21,7 5 3 - - NNE 1020,8 16 -
09.08.2020 08:00:00 22,8 21,1 0 0 - - N 1020,3 11 0,0
09.08.2020 07:00:00 21,7 20,0 0 0 - - N 1019,8 11 -
09.08.2020 06:00:00 22,2 20,6 0 0 - - N 1019,5 15 -
09.08.2020 05:00:00 22,8 21,1 5 3 - - NE 1019,4 11 -
09.08.2020 04:00:00 22,8 21,1 8 4 - - NE 1019,3 11 -
09.08.2020 03:00:00 23,3 21,1 5 3 - - ENE 1019,3 15 -
09.08.2020 02:00:00 24,4 20,6 5 3 - - N 1019,6 16 0,0
09.08.2020 01:00:00 23,3 21,7 0 0 - - N 1019,6 15 -
09.08.2020 00:00:00 24,4 21,7 0 0 - - N 1019,3 16 -
08.08.2020 23:00:00 25,6 22,8 0 0 - - N 1019,1 16 -
08.08.2020 22:00:00 26,1 21,1 0 0 - - N 1018,6 16 -
08.08.2020 21:00:00 27,8 22,2 5 3 - - - 1018,4 16 -
08.08.2020 20:00:00 32,2 21,1 0 0 - - N 1018,1 16 0,0
08.08.2020 19:00:00 33,9 20,6 9 5 - - N 1017,8 16 -
08.08.2020 18:00:00 34,4 18,9 15 8 - - N 1017,8 16 -
08.08.2020 17:00:00 34,4 18,9 9 5 - - NNW 1017,7 16 -
08.08.2020 16:00:00 34,4 20,0 11 6 - - NNW 1018,3 16 -
08.08.2020 15:00:00 33,3 20,0 0 0 - - N 1018,9 16 -
08.08.2020 14:00:00 32,2 20,6 5 3 - - WNW 1019,7 16 0,0
08.08.2020 13:00:00 32,2 21,1 5 3 - - - 1019,9 16 -
08.08.2020 12:00:00 30,0 20,6 0 0 - - N 1020,2 16 -
08.08.2020 11:00:00 28,3 21,1 0 0 - - N 1020,3 16 -
08.08.2020 10:00:00 26,1 21,7 0 0 - - N 1020,4 16 -
08.08.2020 09:00:00 24,4 21,1 0 0 - - N 1020,5 15 -
08.08.2020 08:00:00 21,7 20,6 0 0 - - N 1020,1 4,8 0,0
08.08.2020 07:00:00 21,1 19,4 0 0 - - N 1019,6 2,0 -
08.08.2020 06:00:00 21,7 20,6 0 0 - - N 1018,9 8 -
08.08.2020 05:00:00 22,2 20,6 0 0 - - N 1018,5 10 -
08.08.2020 04:00:00 22,2 20,6 0 0 - - N 1018,3 11 -

tt = temperature
td = dewpoint
ff = wind speed
fx = gusts
dd = wind direction
ppp = reduced air pressure
vv = visibility
rr = precipitation

Next stations